#timestamp,LO_Frequency,Hit,StdDev 
1529748015.1,286047079.9,N
1529748016.0,286047079.9,N
1529748035.8,286047080.0,N
1529748055.7,286047081.3,N
1529748075.5,286047081.7,Y
1529748095.3,286046999.8,P
1529748115.2,286047000.4,N
1529748135.0,286046999.8,N
1529748135.9,286046999.8,N
1529748155.7,286047002.2,N
1529748175.6,286047002.8,N
1529748195.4,286046999.7,N
1529748215.3,286047000.4,N
1529748235.3,286047000.5,N
1529748255.1,286047002.2,N
1529748275.9,286047000.0,N
1529748295.7,286047000.3,N
1529748315.6,286046999.9,N
1529748335.4,286047000.3,N
1529748355.2,286047002.8,N
1529748375.1,286047000.4,N
1529748376.0,286047000.4,N
1529748395.8,286047000.8,N
1529748415.7,286047001.0,N
1529748435.5,286047002.8,N
1529748455.3,286047001.5,N
1529748475.2,286047003.0,N
1529748495.0,286047001.9,N
1529748495.9,286047001.9,N
1529748515.8,286047002.3,N
1529748535.6,286047002.2,N
1529748555.4,286047001.3,N
1529748575.3,286047001.4,N
1529748595.1,286047001.9,N
1529748615.8,286047000.0,N
1529748635.7,286047001.9,N
1529748655.5,286047002.6,N
1529748675.4,286047000.4,N
1529748695.2,286047002.2,N
1529748715.0,286047000.8,N
1529748715.9,286047000.8,N
1529748735.8,286046998.3,N
1529748755.6,286047002.1,N
1529748775.5,286047002.2,N
1529748795.3,286047000.9,N
1529748815.1,286047001.2,N
1529748835.9,286047000.2,N
1529748855.7,286047000.9,N
1529748875.5,286046999.8,N
1529748895.4,286047000.1,N
1529748915.2,286047001.0,N
1529748935.1,286047000.0,N
1529748936.0,286047000.0,N
1529748955.8,286046999.9,N
1529748975.6,286047001.4,N
1529748995.5,286047001.6,N
1529749015.3,286047002.5,N
1529749035.2,286047000.2,N
1529749055.9,286046999.7,N
1529749075.7,286046999.7,N
1529749095.6,286047002.8,N
1529749115.4,286046999.8,N
1529749135.3,286047002.4,N
1529749155.1,286046999.9,N
1529749156.0,286046999.9,N
1529749175.8,286047001.0,N
1529749195.7,286046998.5,N
1529749215.5,286046998.1,N
1529749235.3,286046998.1,N
1529749255.2,286047002.7,N
1529749275.0,286047002.1,N
1529749275.9,286047002.1,N
1529749295.8,286047001.8,N
1529749315.6,286047001.4,N
1529749335.4,286047001.6,N
1529749355.3,286047001.3,N
1529749375.1,286047005.3,Y
1529749395.9,286047004.4,P
1529749415.7,286047001.4,N
1529749435.5,286047002.3,N
1529749455.4,286047002.2,N
1529749475.2,286047002.3,N
1529749495.0,286046999.9,N
1529749495.9,286046999.9,N
1529749515.8,286047002.3,N
1529749535.6,286047001.6,N
1529749555.5,286047001.7,N
1529749575.3,286047001.7,N
1529749595.1,286047003.6,Y
1529749615.9,286047003.7,P
1529749635.7,286047001.4,N
1529749655.5,286047003.8,P
1529749675.4,286047011.9,Y
1529749695.2,286047000.6,P
1529749715.1,286046999.3,N
1529749716.0,286046999.3,N
1529749735.8,286046999.4,N
1529749755.6,286046999.4,N
1529749775.5,286046999.6,N
1529749795.3,286047001.0,N
1529749815.1,286046998.9,N
1529749835.9,286046998.3,N
1529749855.7,286046996.5,N
1529749875.6,286046995.3,Y
1529749895.4,286046997.9,P
1529749915.2,286046997.5,P
1529749935.1,286046997.9,N
1529749936.0,286046997.9,N
1529749955.8,286046997.6,Y
1529749975.7,286047002.6,P
1529749995.5,286047001.5,N
1529750015.3,286047000.2,N
1529750035.2,286047000.5,N
1529750055.0,286046997.0,N
1529750055.9,286046997.0,N
1529750075.8,286046998.9,N
1529750095.6,286046999.4,N
1529750115.4,286046996.8,N
1529750135.3,286046997.2,N
1529750155.1,286046999.5,N
1529750175.8,286046997.7,N
1529750195.7,286046995.4,N
1529750215.4,286046997.0,N
1529750235.3,286046996.5,N
1529750255.1,286046999.2,N
1529750275.8,286046998.7,N
1529750295.7,286046998.6,N
1529750315.5,286047003.5,N
1529750335.4,286047004.0,N
1529750355.2,286047003.7,N
1529750375.0,286047001.6,N
1529750375.9,286047001.6,N
1529750395.8,286047002.3,N
1529750415.6,286047003.8,N
1529750435.4,286047004.4,N
1529750455.3,286047026.0,Y
1529750475.1,286047024.8,P
1529750495.9,286047019.5,N
1529750515.7,286047017.6,N
1529750535.5,286047014.3,N
1529750555.4,286047030.9,Y
1529750575.2,286047017.0,P
1529750595.0,286047010.6,P
1529750595.9,286047010.6,P
1529750615.8,286047007.1,N
1529750635.6,286047003.8,N
1529750655.5,286047002.3,N
1529750675.3,286046998.1,N
1529750695.1,286046999.0,N
1529750715.9,286046997.4,N
1529750735.7,286046998.8,N
1529750755.5,286046998.3,N
1529750775.4,286046997.1,N
1529750795.2,286046995.9,N
1529750815.1,286046993.5,N
1529750816.0,286046993.5,N
1529750835.8,286046994.0,N
1529750855.6,286046993.6,N
1529750875.5,286046991.8,N
1529750895.3,286046991.9,N
1529750915.2,286046990.9,N
1529750935.9,286046990.7,N
1529750955.7,286046989.0,N
1529750975.6,286046989.2,N
1529750995.4,286046987.2,N
1529751015.2,286046989.3,N
1529751035.4,286046988.9,N
1529751055.2,286046991.5,N
1529751075.1,286046990.8,N
1529751076.0,286046990.8,N
1529751095.8,286046993.1,N
1529751115.7,286046990.2,N
1529751135.5,286046990.3,N
1529751155.3,286046991.0,N
1529751175.2,286046989.0,N
1529751195.0,286046989.9,N
1529751195.9,286046989.9,N
1529751215.8,286046987.1,Y
1529751235.6,286046994.1,P
1529751255.4,286046994.7,P
1529751275.3,286046991.7,P
1529751295.1,286046991.7,Y
1529751315.9,286047000.9,P
1529751335.7,286047001.0,N
1529751355.5,286047000.6,N
1529751375.5,286046999.5,N
1529751395.4,286046999.1,N
1529751415.2,286046999.4,N
1529751435.1,286046998.1,N
1529751436.0,286046998.1,N
1529751455.8,286047000.9,N
1529751475.6,286046998.5,N
1529751495.5,286047000.5,N
1529751515.3,286047001.9,N
1529751535.1,286046998.6,N
1529751555.9,286046998.8,N
1529751575.7,286046999.6,N
1529751595.6,286046997.1,N
